Location: Atbuku
(36.4936°N, 30.4362°E)
Time: 20:16:45
(UTC+00:00)

Cosmos 1933 - Pass Details

Date: 11 December 2025
Orbit: 510 x 518 km, 82.5° (Epoch: 12 January)

Event Time Altitude Azimuth Distance (km) Brightness Sun altitude
Rises 15:13:44 0° 179° (S) 2,625 7.1 -6.4°
Reaches altitude 10° 15:15:52 10° 176° (S) 1,742 6.2 -6.8°
Maximum altitude 15:19:39 65° 95° (E) 574 3.2 -7.5°
Drops below altitude 10° 15:23:27 10° 13° (NNE) 1,750 5.5 -8.2°
Sets 15:25:36 0° 11° (N) 2,640 6.5 -8.6°
